AlSat 1N (41789 NORAD) Tracking and Keplerian Element Data

This shows tracking and keplerian element data for the satellite.

Feedback or suggestion? Click here.




ElementValue
Catalog41789
NameAlSat 1N
Epoch Orbit24122
Epoch Day91.77486672
Epoch Year2021
RAAN147.9761
Inclination97.9781
Eccentricity0.002966
Argument of Perigee112.5992
Mean Anonmoly247.8342
Mean Motion14.64403243
Decay Rate1.37E-06
L11 41789U 16059G 21091.77486672 .00000137 00000-0 34558-4 0 9990
L22 41789 97.9781 147.9761 0029660 112.5992 247.8342 14.64403243241221



Live tracking and technical data element details for AlSat 1N (NORAD 41789). AlSat 1N can be tracked NOW for your location showing map with azimuth and elevation plus other details from your city location.







IsCatalogInMostPopularTable: catalog: 41789, numindb: 637
Update: records affected: 1



GetName: 41789 AlSat 1N

Hit Count: updated at: Mon, 13 Jan 2025 20:21:15 GMT